Year,Month,Day,Hour,Minute,Value (Times are PST for temperature in C)
2018,04,19,00,00,4.60
2018,04,19,00,01,4.60
2018,04,19,00,02,4.60
2018,04,19,00,03,4.50
2018,04,19,00,04,4.50
2018,04,19,00,05,4.50
2018,04,19,00,06,4.50
2018,04,19,00,07,4.50
2018,04,19,00,08,4.40
2018,04,19,00,09,4.40
2018,04,19,00,10,4.50
2018,04,19,00,11,4.50
2018,04,19,00,12,4.50
2018,04,19,00,13,4.40
2018,04,19,00,14,4.40
2018,04,19,00,15,4.40
2018,04,19,00,16,4.40
2018,04,19,00,17,4.40
2018,04,19,00,18,4.40
2018,04,19,00,19,4.40
2018,04,19,00,20,4.40
2018,04,19,00,21,4.30
2018,04,19,00,22,4.30
2018,04,19,00,23,4.30
2018,04,19,00,24,4.30
2018,04,19,00,25,4.30
2018,04,19,00,26,4.20
2018,04,19,00,27,4.20
2018,04,19,00,28,4.20
2018,04,19,00,29,4.20
2018,04,19,00,30,4.20
2018,04,19,00,31,4.20
2018,04,19,00,32,4.20
2018,04,19,00,33,4.20
2018,04,19,00,34,4.20
2018,04,19,00,35,4.20
2018,04,19,00,36,4.20
2018,04,19,00,37,4.20
2018,04,19,00,38,4.10
2018,04,19,00,39,4.10
2018,04,19,00,40,4.10
2018,04,19,00,41,4.10
2018,04,19,00,42,4.10
2018,04,19,00,43,4.10
2018,04,19,00,44,4.10
2018,04,19,00,45,4.10
2018,04,19,00,46,4.10
2018,04,19,00,47,4.10
2018,04,19,00,48,4.10
2018,04,19,00,49,4.10
2018,04,19,00,50,4.10
2018,04,19,00,51,4.00
2018,04,19,00,52,4.00
2018,04,19,00,53,4.00
2018,04,19,00,54,4.00
2018,04,19,00,55,4.00
2018,04,19,00,56,3.90
2018,04,19,00,57,3.90
2018,04,19,00,58,3.90
2018,04,19,00,59,3.90
2018,04,19,01,00,3.90
2018,04,19,01,01,3.90
2018,04,19,01,02,3.90
2018,04,19,01,03,3.80
2018,04,19,01,04,3.80
2018,04,19,01,05,3.80
2018,04,19,01,06,3.80
2018,04,19,01,07,3.80
2018,04,19,01,08,3.80
2018,04,19,01,09,3.80
2018,04,19,01,10,3.70
2018,04,19,01,11,3.70
2018,04,19,01,12,3.70
2018,04,19,01,13,3.70
2018,04,19,01,14,3.70
2018,04,19,01,15,3.70
2018,04,19,01,16,3.70
2018,04,19,01,17,3.80
2018,04,19,01,18,3.80
2018,04,19,01,19,3.70
2018,04,19,01,20,3.70
2018,04,19,01,21,3.70
2018,04,19,01,22,3.70
2018,04,19,01,23,3.70
2018,04,19,01,24,3.70
2018,04,19,01,25,3.70
2018,04,19,01,26,3.70
2018,04,19,01,27,3.60
2018,04,19,01,28,3.60
2018,04,19,01,29,3.60
2018,04,19,01,30,3.60
2018,04,19,01,31,3.50
2018,04,19,01,32,3.50
2018,04,19,01,33,3.50
2018,04,19,01,34,3.50
2018,04,19,01,35,3.50
2018,04,19,01,36,3.50
2018,04,19,01,37,3.50
2018,04,19,01,38,3.40
2018,04,19,01,39,3.40
2018,04,19,01,40,3.50
2018,04,19,01,41,3.50
2018,04,19,01,42,3.50
2018,04,19,01,43,3.50
2018,04,19,01,44,3.50
2018,04,19,01,45,3.40
2018,04,19,01,46,3.40
2018,04,19,01,47,3.40
2018,04,19,01,48,3.40
2018,04,19,01,49,3.40
2018,04,19,01,50,3.40
2018,04,19,01,51,3.40
2018,04,19,01,52,3.30
2018,04,19,01,53,3.30
2018,04,19,01,54,3.30
2018,04,19,01,55,3.30
2018,04,19,01,56,3.30
2018,04,19,01,57,3.20
2018,04,19,01,58,3.20
2018,04,19,01,59,3.20
2018,04,19,02,00,3.20
2018,04,19,02,01,3.20
2018,04,19,02,02,3.20
2018,04,19,02,03,3.20
2018,04,19,02,04,3.20
2018,04,19,02,05,3.20
2018,04,19,02,06,3.10
2018,04,19,02,07,3.10
2018,04,19,02,08,3.10
2018,04,19,02,09,3.10
2018,04,19,02,10,3.10
2018,04,19,02,11,3.10
2018,04,19,02,12,3.10
2018,04,19,02,13,3.10
2018,04,19,02,14,3.10
2018,04,19,02,15,3.10
2018,04,19,02,16,3.10
2018,04,19,02,17,3.10
2018,04,19,02,18,3.10
2018,04,19,02,19,3.10
2018,04,19,02,20,3.10
2018,04,19,02,21,3.10
2018,04,19,02,22,3.10
2018,04,19,02,23,3.10
2018,04,19,02,24,2.90
2018,04,19,02,25,2.90
2018,04,19,02,26,2.90
2018,04,19,02,27,2.90
2018,04,19,02,28,2.90
2018,04,19,02,29,2.90
2018,04,19,02,30,2.90
2018,04,19,02,31,2.90
2018,04,19,02,32,2.90
2018,04,19,02,33,2.80
2018,04,19,02,34,2.80
2018,04,19,02,35,2.80
2018,04,19,02,36,2.80
2018,04,19,02,37,2.80
2018,04,19,02,38,2.70
2018,04,19,02,39,2.70
2018,04,19,02,40,2.80
2018,04,19,02,41,2.80
2018,04,19,02,42,2.80
2018,04,19,02,43,2.80
2018,04,19,02,44,2.80
2018,04,19,02,45,2.90
2018,04,19,02,46,2.90
2018,04,19,02,47,2.90
2018,04,19,02,48,2.90
2018,04,19,02,49,2.90
2018,04,19,02,50,2.90
2018,04,19,02,51,2.90
2018,04,19,02,52,2.90
2018,04,19,02,53,2.90
2018,04,19,02,54,2.90
2018,04,19,02,55,2.90
2018,04,19,02,56,2.90
2018,04,19,02,57,2.90
2018,04,19,02,58,2.90
2018,04,19,02,59,2.90
2018,04,19,03,00,2.90
2018,04,19,03,01,2.90
2018,04,19,03,02,2.80
2018,04,19,03,03,2.80
2018,04,19,03,04,2.80
2018,04,19,03,05,2.80
2018,04,19,03,06,2.80
2018,04,19,03,07,2.70
2018,04,19,03,08,2.70
2018,04,19,03,09,2.70
2018,04,19,03,10,2.60
2018,04,19,03,11,2.60
2018,04,19,03,12,2.50
2018,04,19,03,13,2.50
2018,04,19,03,14,2.50
2018,04,19,03,15,2.50
2018,04,19,03,16,2.50
2018,04,19,03,17,2.50
2018,04,19,03,18,2.50
2018,04,19,03,19,2.50
2018,04,19,03,20,2.50
2018,04,19,03,21,2.40
2018,04,19,03,22,2.50
2018,04,19,03,23,2.50
2018,04,19,03,24,2.50
2018,04,19,03,25,2.50
2018,04,19,03,26,2.40
2018,04,19,03,27,2.40
2018,04,19,03,28,2.40
2018,04,19,03,29,2.40
2018,04,19,03,30,2.50
2018,04,19,03,31,2.50
2018,04,19,03,32,2.40
2018,04,19,03,33,2.40
2018,04,19,03,34,2.40
2018,04,19,03,35,2.40
2018,04,19,03,36,2.40
2018,04,19,03,37,2.40
2018,04,19,03,38,2.30
2018,04,19,03,39,2.30
2018,04,19,03,40,2.30
2018,04,19,03,41,2.30
2018,04,19,03,42,2.30
2018,04,19,03,43,2.20
2018,04,19,03,44,2.20
2018,04,19,03,45,2.20
2018,04,19,03,46,2.20
2018,04,19,03,47,2.20
2018,04,19,03,48,2.20
2018,04,19,03,49,2.20
2018,04,19,03,50,2.20
2018,04,19,03,51,2.20
2018,04,19,03,52,2.30
2018,04,19,03,53,2.30
2018,04,19,03,54,2.30
2018,04,19,03,55,2.20
2018,04,19,03,56,2.20
2018,04,19,03,57,2.20
2018,04,19,03,58,2.20
2018,04,19,03,59,2.20
2018,04,19,04,00,2.20
2018,04,19,04,01,2.20
2018,04,19,04,02,2.20
2018,04,19,04,03,2.20
2018,04,19,04,04,2.20
2018,04,19,04,05,2.20
2018,04,19,04,06,2.20
2018,04,19,04,07,2.10
2018,04,19,04,08,2.10
2018,04,19,04,09,2.10
2018,04,19,04,10,2.00
2018,04,19,04,11,2.00
2018,04,19,04,12,2.00
2018,04,19,04,13,2.00
2018,04,19,04,14,2.00
2018,04,19,04,15,2.00
2018,04,19,04,16,2.10
2018,04,19,04,17,2.10
2018,04,19,04,18,2.20
2018,04,19,04,19,2.20
2018,04,19,04,20,2.20
2018,04,19,04,21,2.20
2018,04,19,04,22,2.20
2018,04,19,04,23,2.20
2018,04,19,04,24,2.20
2018,04,19,04,25,2.20
2018,04,19,04,26,2.20
2018,04,19,04,27,2.20
2018,04,19,04,28,2.10
2018,04,19,04,29,2.10
2018,04,19,04,30,2.10
2018,04,19,04,31,2.10
2018,04,19,04,32,2.10
2018,04,19,04,33,2.20
2018,04,19,04,34,2.20
2018,04,19,04,35,2.20
2018,04,19,04,36,2.20
2018,04,19,04,37,2.20
2018,04,19,04,38,2.10
2018,04,19,04,39,2.10
2018,04,19,04,40,2.00
2018,04,19,04,41,2.00
2018,04,19,04,42,2.00
2018,04,19,04,43,1.90
2018,04,19,04,44,1.90
2018,04,19,04,45,1.90
2018,04,19,04,46,1.90
2018,04,19,04,47,1.90
2018,04,19,04,48,1.80
2018,04,19,04,49,1.80
2018,04,19,04,50,1.80
2018,04,19,04,51,1.80
2018,04,19,04,52,1.80
2018,04,19,04,53,1.80
2018,04,19,04,54,1.90
2018,04,19,04,55,1.90
2018,04,19,04,56,1.90
2018,04,19,04,57,1.80
2018,04,19,04,58,1.80
2018,04,19,04,59,1.80
2018,04,19,05,00,1.80
2018,04,19,05,01,1.80
2018,04,19,05,02,1.80
2018,04,19,05,03,1.80
2018,04,19,05,04,1.80
2018,04,19,05,05,1.80
2018,04,19,05,06,1.80
2018,04,19,05,07,1.80
2018,04,19,05,08,1.80
2018,04,19,05,09,1.80
2018,04,19,05,10,1.80
2018,04,19,05,11,1.80
2018,04,19,05,12,1.80
2018,04,19,05,13,1.80
2018,04,19,05,14,1.80
2018,04,19,05,15,1.80
2018,04,19,05,16,1.70
2018,04,19,05,17,1.70
2018,04,19,05,18,1.70
2018,04,19,05,19,1.70
2018,04,19,05,20,1.70
2018,04,19,05,21,1.70
2018,04,19,05,22,1.70
2018,04,19,05,23,1.60
2018,04,19,05,24,1.60
2018,04,19,05,25,1.60
2018,04,19,05,26,1.60
2018,04,19,05,27,1.60
2018,04,19,05,28,1.60
2018,04,19,05,29,1.60
2018,04,19,05,30,1.50
2018,04,19,05,31,1.50
2018,04,19,05,32,1.50
2018,04,19,05,33,1.50
2018,04,19,05,34,1.50
2018,04,19,05,35,1.40
2018,04,19,05,36,1.40
2018,04,19,05,37,1.40
2018,04,19,05,38,1.40
2018,04,19,05,39,1.40
2018,04,19,05,40,1.40
2018,04,19,05,41,1.40
2018,04,19,05,42,1.40
2018,04,19,05,43,1.40
2018,04,19,05,44,1.40
2018,04,19,05,45,1.40
2018,04,19,05,46,1.40
2018,04,19,05,47,1.50
2018,04,19,05,48,1.50
2018,04,19,05,49,1.50
2018,04,19,05,50,1.50
2018,04,19,05,51,1.50
2018,04,19,05,52,1.50
2018,04,19,05,53,1.50
2018,04,19,05,54,1.50
2018,04,19,05,55,1.40
2018,04,19,05,56,1.40
2018,04,19,05,57,1.40
2018,04,19,05,58,1.30
2018,04,19,05,59,1.30
2018,04,19,06,00,1.30
2018,04,19,06,01,1.30
2018,04,19,06,02,1.30
2018,04,19,06,03,1.30
2018,04,19,06,04,1.30
2018,04,19,06,05,1.30
2018,04,19,06,06,1.30
2018,04,19,06,07,1.30
2018,04,19,06,08,1.30
2018,04,19,06,09,1.30
2018,04,19,06,10,1.30
2018,04,19,06,11,1.30
2018,04,19,06,12,1.30
2018,04,19,06,13,1.30
2018,04,19,06,14,1.30
2018,04,19,06,15,1.30
2018,04,19,06,16,1.30
2018,04,19,06,17,1.30
2018,04,19,06,18,1.30
2018,04,19,06,19,1.30
2018,04,19,06,20,1.30
2018,04,19,06,21,1.40
2018,04,19,06,22,1.40
2018,04,19,06,23,1.40
2018,04,19,06,24,1.50
2018,04,19,06,25,1.50
2018,04,19,06,26,1.50
2018,04,19,06,27,1.50
2018,04,19,06,28,1.50
2018,04,19,06,29,1.50
2018,04,19,06,30,1.50
2018,04,19,06,31,1.50
2018,04,19,06,32,1.50
2018,04,19,06,33,1.40
2018,04,19,06,34,1.40
2018,04,19,06,35,1.30
2018,04,19,06,36,1.30
2018,04,19,06,37,1.30
2018,04,19,06,38,1.30
2018,04,19,06,39,1.30
2018,04,19,06,40,1.30
2018,04,19,06,41,1.30
2018,04,19,06,42,1.30
2018,04,19,06,43,1.30
2018,04,19,06,44,1.30
2018,04,19,06,45,1.30
2018,04,19,06,46,1.30
2018,04,19,06,47,1.30
2018,04,19,06,48,1.30
2018,04,19,06,49,1.30
2018,04,19,06,50,1.30
2018,04,19,06,51,1.30
2018,04,19,06,52,1.30
2018,04,19,06,53,1.30
2018,04,19,06,54,1.30
2018,04,19,06,55,1.30
2018,04,19,06,56,1.40
2018,04,19,06,57,1.40
2018,04,19,06,58,1.40
2018,04,19,06,59,1.50
2018,04,19,07,00,1.60
2018,04,19,07,01,1.70
2018,04,19,07,02,1.80
2018,04,19,07,03,1.90
2018,04,19,07,04,2.00
2018,04,19,07,05,2.00
2018,04,19,07,06,2.10
2018,04,19,07,07,2.10
2018,04,19,07,08,2.20
2018,04,19,07,09,2.20
2018,04,19,07,10,2.40
2018,04,19,07,11,2.40
2018,04,19,07,12,2.50
2018,04,19,07,13,2.50
2018,04,19,07,14,2.60
2018,04,19,07,15,2.60
2018,04,19,07,16,2.60
2018,04,19,07,17,2.60
2018,04,19,07,18,2.60
2018,04,19,07,19,2.60
2018,04,19,07,20,2.60
2018,04,19,07,21,2.70
2018,04,19,07,22,2.70
2018,04,19,07,23,2.70
2018,04,19,07,24,2.80
2018,04,19,07,25,2.80
2018,04,19,07,26,2.90
2018,04,19,07,27,3.00
2018,04,19,07,28,3.10
2018,04,19,07,29,3.10
2018,04,19,07,30,3.10
2018,04,19,07,31,3.10
2018,04,19,07,32,3.20
2018,04,19,07,33,3.20
2018,04,19,07,34,3.20
2018,04,19,07,35,3.30
2018,04,19,07,36,3.40
2018,04,19,07,37,3.50
2018,04,19,07,38,3.60
2018,04,19,07,39,3.70
2018,04,19,07,40,3.80
2018,04,19,07,41,3.90
2018,04,19,07,42,4.00
2018,04,19,07,43,4.10
2018,04,19,07,44,4.20
2018,04,19,07,45,4.20
2018,04,19,07,46,4.20
2018,04,19,07,47,4.30
2018,04,19,07,48,4.40
2018,04,19,07,49,4.40
2018,04,19,07,50,4.50
2018,04,19,07,51,4.60
2018,04,19,07,52,4.60
2018,04,19,07,53,4.70
2018,04,19,07,54,4.80
2018,04,19,07,55,4.90
2018,04,19,07,56,5.00
2018,04,19,07,57,5.10
2018,04,19,07,58,5.20
2018,04,19,07,59,5.30
2018,04,19,08,00,5.50
2018,04,19,08,01,5.60
2018,04,19,08,02,5.70
2018,04,19,08,03,5.70
2018,04,19,08,04,5.80
2018,04,19,08,05,5.90
2018,04,19,08,06,6.00
2018,04,19,08,07,6.00
2018,04,19,08,08,6.10
2018,04,19,08,09,6.10
2018,04,19,08,10,6.20
2018,04,19,08,11,6.20
2018,04,19,08,12,6.20
2018,04,19,08,13,6.30
2018,04,19,08,14,6.30
2018,04,19,08,15,6.40
2018,04,19,08,16,6.40
2018,04,19,08,17,6.50
2018,04,19,08,18,6.60
2018,04,19,08,19,6.60
2018,04,19,08,20,6.60
2018,04,19,08,21,6.70
2018,04,19,08,22,6.80
2018,04,19,08,23,6.80
2018,04,19,08,24,7.00
2018,04,19,08,25,7.10
2018,04,19,08,26,7.20
2018,04,19,08,27,7.30
2018,04,19,08,28,7.40
2018,04,19,08,29,7.50
2018,04,19,08,30,7.60
2018,04,19,08,31,7.70
2018,04,19,08,32,7.80
2018,04,19,08,33,7.80
2018,04,19,08,34,7.80
2018,04,19,08,35,7.80
2018,04,19,08,36,7.80
2018,04,19,08,37,7.90
2018,04,19,08,38,7.90
2018,04,19,08,39,8.00
2018,04,19,08,40,8.10
2018,04,19,08,41,8.20
2018,04,19,08,42,8.20
2018,04,19,08,43,8.20
2018,04,19,08,44,8.30
2018,04,19,08,45,8.30
2018,04,19,08,46,8.30
2018,04,19,08,47,8.40
2018,04,19,08,48,8.40
2018,04,19,08,49,8.40
2018,04,19,08,50,8.50
2018,04,19,08,51,8.60
2018,04,19,08,52,8.60
2018,04,19,08,53,8.70
2018,04,19,08,54,8.70
2018,04,19,08,55,8.70
2018,04,19,08,56,8.80
2018,04,19,08,57,8.80
2018,04,19,08,58,8.90
2018,04,19,08,59,8.90
2018,04,19,09,00,8.90
2018,04,19,09,01,9.00
2018,04,19,09,02,9.00
2018,04,19,09,03,9.00
2018,04,19,09,04,9.00
2018,04,19,09,05,9.00
2018,04,19,09,06,9.00
2018,04,19,09,07,9.00
2018,04,19,09,08,9.10
2018,04,19,09,09,9.10
2018,04,19,09,10,9.10
2018,04,19,09,11,9.20
2018,04,19,09,12,9.20
2018,04,19,09,13,9.20
2018,04,19,09,14,9.20
2018,04,19,09,15,9.20
2018,04,19,09,16,9.30
2018,04,19,09,17,9.30
2018,04,19,09,18,9.40
2018,04,19,09,19,9.50
2018,04,19,09,20,9.50
2018,04,19,09,21,9.60
2018,04,19,09,22,9.70
2018,04,19,09,23,9.70
2018,04,19,09,24,9.70
2018,04,19,09,25,9.80
2018,04,19,09,26,9.80
2018,04,19,09,27,9.80
2018,04,19,09,28,9.90
2018,04,19,09,29,9.90
2018,04,19,09,30,9.90
2018,04,19,09,31,9.90
2018,04,19,09,32,9.90
2018,04,19,09,33,9.90
2018,04,19,09,34,9.90
2018,04,19,09,35,9.90
2018,04,19,09,36,9.90
2018,04,19,09,37,9.90
2018,04,19,09,38,10.00
2018,04,19,09,39,10.10
2018,04,19,09,40,10.10
2018,04,19,09,41,10.10
2018,04,19,09,42,10.10
2018,04,19,09,43,10.00
2018,04,19,09,44,9.90
2018,04,19,09,45,9.90
2018,04,19,09,46,9.90
2018,04,19,09,47,9.90
2018,04,19,09,48,9.90
2018,04,19,09,49,9.90
2018,04,19,09,50,9.90
2018,04,19,09,51,10.00
2018,04,19,09,52,10.10
2018,04,19,09,53,10.10
2018,04,19,09,54,10.10
2018,04,19,09,55,10.10
2018,04,19,09,56,10.10
2018,04,19,09,57,10.10
2018,04,19,09,58,10.10
2018,04,19,09,59,10.10
2018,04,19,10,00,10.00
2018,04,19,10,01,9.90
2018,04,19,10,02,9.90
2018,04,19,10,03,9.80
2018,04,19,10,04,9.80
2018,04,19,10,05,9.80
2018,04,19,10,06,9.80
2018,04,19,10,07,9.80
2018,04,19,10,08,9.80
2018,04,19,10,09,9.90
2018,04,19,10,10,9.90
2018,04,19,10,11,9.90
2018,04,19,10,12,9.90
2018,04,19,10,13,9.90
2018,04,19,10,14,9.90
2018,04,19,10,15,10.00
2018,04,19,10,16,10.10
2018,04,19,10,17,10.10
2018,04,19,10,18,10.10
2018,04,19,10,19,10.10
2018,04,19,10,20,10.20
2018,04,19,10,21,10.20
2018,04,19,10,22,10.30
2018,04,19,10,23,10.40
2018,04,19,10,24,10.40
2018,04,19,10,25,10.50
2018,04,19,10,26,10.60
2018,04,19,10,27,10.60
2018,04,19,10,28,10.60
2018,04,19,10,29,10.60
2018,04,19,10,30,10.60
2018,04,19,10,31,10.60
2018,04,19,10,32,10.60
2018,04,19,10,33,10.60
2018,04,19,10,34,10.40
2018,04,19,10,35,10.50
2018,04,19,10,36,10.60
2018,04,19,10,37,10.60
2018,04,19,10,38,10.60
2018,04,19,10,39,10.60
2018,04,19,10,40,10.40
2018,04,19,10,41,10.40
2018,04,19,10,42,10.40
2018,04,19,10,43,10.40
2018,04,19,10,44,10.40
2018,04,19,10,45,10.30
2018,04,19,10,46,10.30
2018,04,19,10,47,10.30
2018,04,19,10,48,10.30
2018,04,19,10,49,10.20
2018,04,19,10,50,10.20
2018,04,19,10,51,10.20
2018,04,19,10,52,10.20
2018,04,19,10,53,10.20
2018,04,19,10,54,10.20
2018,04,19,10,55,10.20
2018,04,19,10,56,10.20
2018,04,19,10,57,10.20
2018,04,19,10,58,10.20
2018,04,19,10,59,10.20
2018,04,19,11,00,10.20
2018,04,19,11,01,10.20
2018,04,19,11,02,10.20
2018,04,19,11,03,10.20
2018,04,19,11,04,10.20
2018,04,19,11,05,10.20
2018,04,19,11,06,10.20
2018,04,19,11,07,10.20
2018,04,19,11,08,10.30
2018,04,19,11,09,10.40
2018,04,19,11,10,10.40
2018,04,19,11,11,10.50
2018,04,19,11,12,10.60
2018,04,19,11,13,10.60
2018,04,19,11,14,10.70
2018,04,19,11,15,10.80
2018,04,19,11,16,10.80
2018,04,19,11,17,10.90
2018,04,19,11,18,10.90
2018,04,19,11,19,11.00
2018,04,19,11,20,11.10
2018,04,19,11,21,11.10
2018,04,19,11,22,11.10
2018,04,19,11,23,11.10
2018,04,19,11,24,11.10
2018,04,19,11,25,11.10
2018,04,19,11,26,11.10
2018,04,19,11,27,11.10
2018,04,19,11,28,11.10
2018,04,19,11,29,11.10
2018,04,19,11,30,11.10
2018,04,19,11,31,11.10
2018,04,19,11,32,11.20
2018,04,19,11,33,11.20
2018,04,19,11,34,11.20
2018,04,19,11,35,11.20
2018,04,19,11,36,11.20
2018,04,19,11,37,11.20
2018,04,19,11,38,11.20
2018,04,19,11,39,11.20
2018,04,19,11,40,11.20
2018,04,19,11,41,11.20
2018,04,19,11,42,11.20
2018,04,19,11,43,11.20
2018,04,19,11,44,11.20
2018,04,19,11,45,11.30
2018,04,19,11,46,11.30
2018,04,19,11,47,11.40
2018,04,19,11,48,11.40
2018,04,19,11,49,11.40
2018,04,19,11,50,11.40
2018,04,19,11,51,11.50
2018,04,19,11,52,11.60
2018,04,19,11,53,11.60
2018,04,19,11,54,11.60
2018,04,19,11,55,11.60
2018,04,19,11,56,11.60
2018,04,19,11,57,11.60
2018,04,19,11,58,11.60
2018,04,19,11,59,11.80
2018,04,19,12,00,11.90
2018,04,19,12,01,12.00
2018,04,19,12,02,12.10
2018,04,19,12,03,12.20
2018,04,19,12,04,12.30
2018,04,19,12,05,12.30
2018,04,19,12,06,12.40
2018,04,19,12,07,12.40
2018,04,19,12,08,12.50
2018,04,19,12,09,12.60
2018,04,19,12,10,12.50
2018,04,19,12,11,12.50
2018,04,19,12,12,12.40
2018,04,19,12,13,12.40
2018,04,19,12,14,12.40
2018,04,19,12,15,12.40
2018,04,19,12,16,12.40
2018,04,19,12,17,12.40
2018,04,19,12,18,12.40
2018,04,19,12,19,12.40
2018,04,19,12,20,12.50
2018,04,19,12,21,12.60
2018,04,19,12,22,12.60
2018,04,19,12,23,12.50
2018,04,19,12,24,12.50
2018,04,19,12,25,12.40
2018,04,19,12,26,12.30
2018,04,19,12,27,12.20
2018,04,19,12,28,12.20
2018,04,19,12,29,12.20
2018,04,19,12,30,12.10
2018,04,19,12,31,12.10
2018,04,19,12,32,12.10
2018,04,19,12,33,12.10
2018,04,19,12,34,12.20
2018,04,19,12,35,12.30
2018,04,19,12,36,12.30
2018,04,19,12,37,12.40
2018,04,19,12,38,12.40
2018,04,19,12,39,12.50
2018,04,19,12,40,12.50
2018,04,19,12,41,12.60
2018,04,19,12,42,12.70
2018,04,19,12,43,12.80
2018,04,19,12,44,12.80
2018,04,19,12,45,12.80
2018,04,19,12,46,12.80
2018,04,19,12,47,12.80
2018,04,19,12,48,12.70
2018,04,19,12,49,12.70
2018,04,19,12,50,12.80
2018,04,19,12,51,12.90
2018,04,19,12,52,13.00
2018,04,19,12,53,13.10
2018,04,19,12,54,13.10
2018,04,19,12,55,13.00
2018,04,19,12,56,13.00
2018,04,19,12,57,12.90
2018,04,19,12,58,12.80
2018,04,19,12,59,12.80
2018,04,19,13,00,12.70
2018,04,19,13,01,12.80
2018,04,19,13,02,12.90
2018,04,19,13,03,13.00
2018,04,19,13,04,13.00
2018,04,19,13,05,12.90
2018,04,19,13,06,12.80
2018,04,19,13,07,12.80
2018,04,19,13,08,12.80
2018,04,19,13,09,12.80
2018,04,19,13,10,12.80
2018,04,19,13,11,12.80
2018,04,19,13,12,12.80
2018,04,19,13,13,12.80
2018,04,19,13,14,12.80
2018,04,19,13,15,12.80
2018,04,19,13,16,12.80
2018,04,19,13,17,12.80
2018,04,19,13,18,12.90
2018,04,19,13,19,12.90
2018,04,19,13,20,12.70
2018,04,19,13,21,12.70
2018,04,19,13,22,12.70
2018,04,19,13,23,12.60
2018,04,19,13,24,12.60
2018,04,19,13,25,12.60
2018,04,19,13,26,12.70
2018,04,19,13,27,12.70
2018,04,19,13,28,12.70
2018,04,19,13,29,12.80
2018,04,19,13,30,12.90
2018,04,19,13,31,13.00
2018,04,19,13,32,12.90
2018,04,19,13,33,12.80
2018,04,19,13,34,12.70
2018,04,19,13,35,12.60
2018,04,19,13,36,12.60
2018,04,19,13,37,12.60
2018,04,19,13,38,12.60
2018,04,19,13,39,12.60
2018,04,19,13,40,12.60
2018,04,19,13,41,12.60
2018,04,19,13,42,12.70
2018,04,19,13,43,12.70
2018,04,19,13,44,12.70
2018,04,19,13,45,12.70
2018,04,19,13,46,12.80
2018,04,19,13,47,12.80
2018,04,19,13,48,12.80
2018,04,19,13,49,12.90
2018,04,19,13,50,12.90
2018,04,19,13,51,12.80
2018,04,19,13,52,12.90
2018,04,19,13,53,13.00
2018,04,19,13,54,13.00
2018,04,19,13,55,13.10
2018,04,19,13,56,13.00
2018,04,19,13,57,12.90
2018,04,19,13,58,12.90
2018,04,19,13,59,12.90
2018,04,19,14,00,13.00
2018,04,19,14,01,12.90
2018,04,19,14,02,12.80
2018,04,19,14,03,12.90
2018,04,19,14,04,12.90
2018,04,19,14,05,12.90
2018,04,19,14,06,13.00
2018,04,19,14,07,13.00
2018,04,19,14,08,12.90
2018,04,19,14,09,12.90
2018,04,19,14,10,12.90
2018,04,19,14,11,12.90
2018,04,19,14,12,12.90
2018,04,19,14,13,12.90
2018,04,19,14,14,13.00
2018,04,19,14,15,13.00
2018,04,19,14,16,12.80
2018,04,19,14,17,12.80
2018,04,19,14,18,12.80
2018,04,19,14,19,12.80
2018,04,19,14,20,12.80
2018,04,19,14,21,12.90
2018,04,19,14,22,12.90
2018,04,19,14,23,12.90
2018,04,19,14,24,12.90
2018,04,19,14,25,12.90
2018,04,19,14,26,12.90
2018,04,19,14,27,12.80
2018,04,19,14,28,12.80
2018,04,19,14,29,12.80
2018,04,19,14,30,12.70
2018,04,19,14,31,12.60
2018,04,19,14,32,12.60
2018,04,19,14,33,12.60
2018,04,19,14,34,12.70
2018,04,19,14,35,12.80
2018,04,19,14,36,12.80
2018,04,19,14,37,12.90
2018,04,19,14,38,12.90
2018,04,19,14,39,13.00
2018,04,19,14,40,12.90
2018,04,19,14,41,12.90
2018,04,19,14,42,12.80
2018,04,19,14,43,12.80
2018,04,19,14,44,12.80
2018,04,19,14,45,12.90
2018,04,19,14,46,12.90
2018,04,19,14,47,12.90
2018,04,19,14,48,12.80
2018,04,19,14,49,12.70
2018,04,19,14,50,12.60
2018,04,19,14,51,12.60
2018,04,19,14,52,12.60
2018,04,19,14,53,12.60
2018,04,19,14,54,12.50
2018,04,19,14,55,12.50
2018,04,19,14,56,12.60
2018,04,19,14,57,12.60
2018,04,19,14,58,12.70
2018,04,19,14,59,12.60
2018,04,19,15,00,12.50
2018,04,19,15,01,12.40
2018,04,19,15,02,12.40
2018,04,19,15,03,12.40
2018,04,19,15,04,12.50
2018,04,19,15,05,12.50
2018,04,19,15,06,12.50
2018,04,19,15,07,12.50
2018,04,19,15,08,12.50
2018,04,19,15,09,12.50
2018,04,19,15,10,12.40
2018,04,19,15,11,12.30
2018,04,19,15,12,12.30
2018,04,19,15,13,12.20
2018,04,19,15,14,12.20
2018,04,19,15,15,12.30
2018,04,19,15,16,12.30
2018,04,19,15,17,12.30
2018,04,19,15,18,12.30
2018,04,19,15,19,12.30
2018,04,19,15,20,12.30
2018,04,19,15,21,12.30
2018,04,19,15,22,12.40
2018,04,19,15,23,12.40
2018,04,19,15,24,12.40
2018,04,19,15,25,12.40
2018,04,19,15,26,12.30
2018,04,19,15,27,12.30
2018,04,19,15,28,12.20
2018,04,19,15,29,12.20
2018,04,19,15,30,12.20
2018,04,19,15,31,12.30
2018,04,19,15,32,12.20
2018,04,19,15,33,12.20
2018,04,19,15,34,12.20
2018,04,19,15,35,12.30
2018,04,19,15,36,12.30
2018,04,19,15,37,12.30
2018,04,19,15,38,12.20
2018,04,19,15,39,12.30
2018,04,19,15,40,12.30
2018,04,19,15,41,12.30
2018,04,19,15,42,12.30
2018,04,19,15,43,12.20
2018,04,19,15,44,12.20
2018,04,19,15,45,12.30
2018,04,19,15,46,12.30
2018,04,19,15,47,12.30
2018,04,19,15,48,12.20
2018,04,19,15,49,12.00
2018,04,19,15,50,11.90
2018,04,19,15,51,11.80
2018,04,19,15,52,11.80
2018,04,19,15,53,11.80
2018,04,19,15,54,11.80
2018,04,19,15,55,11.80
2018,04,19,15,56,11.80
2018,04,19,15,57,11.80
2018,04,19,15,58,11.80
2018,04,19,15,59,11.80
2018,04,19,16,00,11.80
2018,04,19,16,01,11.80
2018,04,19,16,02,11.70
2018,04,19,16,03,11.60
2018,04,19,16,04,11.60
2018,04,19,16,05,11.60
2018,04,19,16,06,11.60
2018,04,19,16,07,11.60
2018,04,19,16,08,11.60
2018,04,19,16,09,11.60
2018,04,19,16,10,11.80
2018,04,19,16,11,11.90
2018,04,19,16,12,11.90
2018,04,19,16,13,11.80
2018,04,19,16,14,11.70
2018,04,19,16,15,11.70
2018,04,19,16,16,11.70
2018,04,19,16,17,11.70
2018,04,19,16,18,11.80
2018,04,19,16,19,11.80
2018,04,19,16,20,11.80
2018,04,19,16,21,11.80
2018,04,19,16,22,11.90
2018,04,19,16,23,12.00
2018,04,19,16,24,12.00
2018,04,19,16,25,12.00
2018,04,19,16,26,11.90
2018,04,19,16,27,11.90
2018,04,19,16,28,12.00
2018,04,19,16,29,12.00
2018,04,19,16,30,11.90
2018,04,19,16,31,11.90
2018,04,19,16,32,11.90
2018,04,19,16,33,11.80
2018,04,19,16,34,11.80
2018,04,19,16,35,11.80
2018,04,19,16,36,11.80
2018,04,19,16,37,11.90
2018,04,19,16,38,12.00
2018,04,19,16,39,12.10
2018,04,19,16,40,12.10
2018,04,19,16,41,12.10
2018,04,19,16,42,12.10
2018,04,19,16,43,12.20
2018,04,19,16,44,12.30
2018,04,19,16,45,12.50
2018,04,19,16,46,12.50
2018,04,19,16,47,12.50
2018,04,19,16,48,12.50
2018,04,19,16,49,12.60
2018,04,19,16,50,12.50
2018,04,19,16,51,12.60
2018,04,19,16,52,12.70
2018,04,19,16,53,12.70
2018,04,19,16,54,12.80
2018,04,19,16,55,12.80
2018,04,19,16,56,12.80
2018,04,19,16,57,12.80
2018,04,19,16,58,12.80
2018,04,19,16,59,12.80
2018,04,19,17,00,12.80
2018,04,19,17,01,12.80
2018,04,19,17,02,12.70
2018,04,19,17,03,12.70
2018,04,19,17,04,12.60
2018,04,19,17,05,12.60
2018,04,19,17,06,12.50
2018,04,19,17,07,12.50
2018,04,19,17,08,12.60
2018,04,19,17,09,12.70
2018,04,19,17,10,12.70
2018,04,19,17,11,12.80
2018,04,19,17,12,12.80
2018,04,19,17,13,12.80
2018,04,19,17,14,12.80
2018,04,19,17,15,12.70
2018,04,19,17,16,12.70
2018,04,19,17,17,12.70
2018,04,19,17,18,12.70
2018,04,19,17,19,12.60
2018,04,19,17,20,12.60
2018,04,19,17,21,12.60
2018,04,19,17,22,12.60
2018,04,19,17,23,12.60
2018,04,19,17,24,12.60
2018,04,19,17,25,12.60
2018,04,19,17,26,12.60
2018,04,19,17,27,12.70
2018,04,19,17,28,12.70
2018,04,19,17,29,12.70
2018,04,19,17,30,12.80
2018,04,19,17,31,12.80
2018,04,19,17,32,12.80
2018,04,19,17,33,12.90
2018,04,19,17,34,13.00
2018,04,19,17,35,13.00
2018,04,19,17,36,13.10
2018,04,19,17,37,13.20
2018,04,19,17,38,13.30
2018,04,19,17,39,13.40
2018,04,19,17,40,13.50
2018,04,19,17,41,13.60
2018,04,19,17,42,13.60
2018,04,19,17,43,13.60
2018,04,19,17,44,13.70
2018,04,19,17,45,13.70